Simultaneous Nadir Overpasses (SNOs) Predictions

Prediction of SNOs between AQUA and NOAA-19 Satellite Orbit:

Table of predicted SNOs for the next 14.0 days since TLE Epoch: 4/26/2025
Index Date (AQUA) Time (AQUA) Lat,Lon (AQUA) SZA (AQUA ) Date (NOAA-19) Time (NOAA-19) Lat,Lon (NOAA-19) SZA (NOAA-19 ) Distance(km) Time Diff (sec)
1 04/27/2025 14:34:48 75.32, -33.17 61.29 04/27/2025 14:33:40 75.24, -35.46 61.15 65.37 68
2 04/27/2025 15:24:13 -75.70, 133.39 118.38 04/27/2025 15:24:27 -75.70, 133.28 118.38 2.91 14
3 04/29/2025 17:31:47 75.73, -78.53 61.01 04/29/2025 17:31:45 75.72, -78.41 61.01 3.42 2
4 05/01/2025 19:39:17 -75.71, 69.70 119.64 05/01/2025 19:39:02 -75.71, 69.78 119.64 2.19 15
5 05/01/2025 20:28:44 76.09,-123.83 60.71 05/01/2025 20:29:51 76.14,-121.45 60.83 63.58 67
6 05/03/2025 21:46:48 75.71,-142.12 59.75 05/03/2025 21:46:19 75.72,-142.00 59.75 3.38 29
7 05/03/2025 22:36:06 -75.74, 25.46 120.24 05/03/2025 22:37:17 -75.74, 25.35 120.23 2.98 71
8 05/05/2025 23:54:16 -75.70, 6.10 120.86 05/05/2025 23:53:37 -75.69, 6.14 120.87 1.56 39
9 05/06/2025 00:43:36 75.75, 173.62 59.18 05/06/2025 00:44:33 75.75, 173.61 59.19 0.52 57
10 05/08/2025 02:01:44 75.67, 154.38 58.54 05/08/2025 02:00:53 75.67, 154.28 58.53 2.79 51
11 05/08/2025 02:51:03 -75.74, -38.17 121.40 05/08/2025 02:51:51 -75.75, -38.19 121.39 0.60 48



Historial Predications of SNOs between AQUA and NOAA-19
